Location: Huesca
(42.1318°N, 0.4078°W)
Time: 17:04:05
(UTC+02:00)

ACS3 Solar Sail - Pass Details

Date: 23 June 2024
Orbit: 992 x 1023 km, 97.4° (Epoch: 12 July)

Event Time Altitude Azimuth Distance (km) Brightness Sun altitude
Exits shadow 23:50:27 20° 183° (S) 2,112 6.1 -17.6°
Maximum altitude 23:54:49 64° 260° (W) 1,096 5.1 -18.0°
Drops below altitude 10° 00:01:01 10° 342° (NNW) 2,766 8.4 -18.6°
Sets 00:03:32 0° 346° (NNW) 3,718 9.3 -18.8°
